Terminal Aerodrome Forecast
Issued by NWS

Home | Current Version | Previous Version | Text Only | Print | Product List | Glossary On
Versions: 1 2 3 4 5 6 7 8 9 10 11 12
000
FTUS46 KPDT 042320
TAFYKM
TAF
KYKM 042320Z 0500/0524 VRB04KT P6SM BKN090 BKN140
     FM050300 31007KT P6SM BKN120 BKN150
     FM051500 VRB06KT P6SM BKN090=

USA.gov is the U.S. government's official web portal to all federal, state and local government web resources and services.